RH
51 52 50 50 50 49 51 50 47 49 53 54 56 59 58 59 60 62 62 59 55 54 54 57 60 61 62 64 67 68 67 68 70 69 70 71 69 71 76 77 76 73 72 69 69 75 65 50 49 48 48 50 49 48 49 48 48 50 48 46 48 52 57
48 47 45 45 48 51 52 49 44 44 50 55 57 59 58 57 57 57 57 57 55 49 44 47 52 58 66 73 74 74 73 72 73 73 71 68 65 67 71 74 71 70 76 74 70 74 62 45 45 46 45 47 47 46 47 46 46 46 44 43 42 44 49
45 45 43 45 48 51 51 49 47 44 47 54 58 57 56 57 57 57 58 60 59 56 52 53 59 68 77 80 80 81 81 78 77 76 73 69 68 68 66 67 65 62 68 70 67 66 54 41 39 41 41 42 43 44 42 39 39 39 39 40 39 39 43
49 48 46 46 47 48 47 47 48 48 48 52 58 58 56 57 59 62 62 61 61 61 60 59 61 68 76 80 83 84 83 81 78 78 77 73 70 69 64 63 61 56 54 55 58 55 43 35 35 36 35 36 37 38 37 34 31 30 31 33 36 38 41
51 50 48 45 44 45 45 45 46 47 49 52 56 58 57 57 60 64 64 60 61 62 61 60 60 63 68 73 79 81 80 80 78 77 77 75 71 69 65 59 54 51 45 41 41 38 30 30 34 32 29 29 31 32 33 32 27 26 25 25 29 33 38
56 55 52 45 44 43 41 44 45 43 47 51 54 55 56 56 57 61 62 60 61 62 62 62 61 62 62 66 75 79 78 78 77 76 76 75 71 65 58 48 40 38 35 33 33 31 28 31 30 26 25 27 28 29 29 28 23 21 21 21 23 27 33
62 59 54 46 45 42 39 43 44 43 47 52 54 54 55 57 58 60 62 61 61 62 65 64 60 58 57 60 68 72 71 71 69 68 67 64 59 54 46 37 32 30 28 28 28 27 27 30 28 25 26 27 27 26 25 24 23 20 19 19 21 25 32
64 59 53 46 45 44 43 44 44 46 50 53 54 55 56 59 60 61 61 61 60 61 63 61 58 56 54 56 61 62 59 58 55 55 55 53 48 44 38 31 30 29 27 26 25 24 24 27 28 27 27 27 27 26 23 23 24 22 20 21 21 25 31
67 61 53 46 47 48 45 46 46 50 52 52 53 54 56 56 56 55 54 57 59 60 59 57 56 55 53 53 54 52 48 46 45 46 46 47 45 41 37 33 32 32 32 29 28 28 27 27 28 28 27 26 27 28 27 26 25 22 22 22 22 25 27
65 61 55 51 54 54 55 58 56 54 54 54 54 54 55 55 52 50 49 52 55 56 55 53 51 50 47 46 45 45 44 43 42 42 41 42 42 41 39 36 35 36 37 35 33 33 31 30 29 30 29 26 26 28 28 31 30 25 25 24 22 25 26
66 65 59 54 54 54 59 64 62 57 54 54 54 51 51 53 50 46 45 47 49 50 48 45 43 42 40 39 39 40 41 40 40 40 40 41 43 44 43 40 41 43 43 43 41 38 35 33 31 32 30 28 30 30 26 32 36 31 30 29 25 24 25
71 66 56 51 49 47 50 54 59 61 56 52 51 46 42 43 43 40 39 41 43 44 43 40 38 36 35 35 34 34 36 36 37 39 40 43 46 48 47 45 44 44 44 43 43 42 39 36 33 32 32 33 36 36 30 32 38 37 36 33 30 28 27
70 61 51 49 48 48 48 49 56 63 57 51 49 44 39 38 38 36 34 35 37 39 39 38 36 35 33 32 31 32 34 34 34 37 38 40 43 45 44 43 43 43 42 39 39 41 41 40 37 34 35 37 38 38 35 34 38 40 39 37 33 30 30
68 58 50 51 53 54 55 53 54 58 56 52 48 44 40 37 36 34 31 32 33 34 37 37 36 35 33 32 33 33 33 32 33 37 39 39 39 40 39 39 41 42 40 36 36 36 35 37 37 35 35 36 36 37 36 36 38 39 42 41 34 30 33
69 62 56 57 60 61 64 63 57 54 54 52 45 40 39 39 37 33 31 32 31 31 34 35 35 36 35 36 38 38 34 32 34 37 38 38 39 40 38 36 38 41 40 38 36 33 32 33 33 33 34 34 34 36 36 35 36 38 42 43 37 32 35
64 64 64 62 61 63 68 68 60 51 48 48 43 38 38 40 39 36 35 35 32 30 32 36 37 37 37 39 40 40 38 37 38 38 36 35 37 40 40 38 39 43 43 42 40 35 33 33 31 32 35 36 37 37 37 38 37 37 39 40 39 34 33
60 63 65 61 60 63 66 64 58 49 45 44 43 40 39 38 38 39 38 38 36 33 34 39 40 38 38 39 40 42 42 41 41 40 35 34 35 39 43 43 43 45 46 46 45 40 38 38 36 35 37 39 39 40 43 43 39 37 38 38 39 36 34
61 62 63 59 58 64 64 60 57 52 46 44 43 44 42 37 36 39 39 38 39 38 38 39 41 42 43 42 43 43 44 45 45 44 42 40 40 42 45 46 46 47 48 50 49 45 43 43 40 37 38 37 36 39 44 44 40 40 41 40 40 40 40
63 63 64 60 59 64 64 59 57 54 49 46 45 46 45 39 36 37 36 36 37 38 39 39 40 43 46 47 48 47 48 50 50 49 49 47 46 47 49 49 49 50 50 51 51 49 48 49 47 44 42 40 36 37 42 44 42 42 43 43 42 41 43
65 63 64 61 60 64 66 61 56 53 50 48 48 48 45 42 39 36 33 33 33 35 38 38 39 41 43 47 51 52 54 55 53 53 54 51 50 51 52 51 51 51 52 52 52 51 50 50 52 51 49 47 44 40 41 43 41 40 41 42 42 42 41
66 64 63 62 63 67 67 61 55 52 51 52 53 51 46 44 43 40 36 34 33 35 36 36 38 41 43 48 54 58 60 60 58 59 59 57 57 58 58 58 59 58 56 54 53 53 54 54 56 57 56 52 49 46 44 43 42 41 41 40 40 41 40
69 68 67 66 68 69 67 61 57 56 56 56 56 55 50 46 46 42 39 37 35 36 36 36 39 42 45 52 58 61 65 67 67 66 66 64 65 67 68 67 66 64 61 59 58 56 56 57 56 59 60 56 52 51 48 46 45 44 43 41 39 38 39
72 72 72 71 71 70 69 65 62 60 59 59 59 58 53 49 49 46 41 41 40 40 41 41 42 45 49 55 59 62 68 72 70 68 70 71 71 74 77 72 64 63 66 67 66 61 58 59 59 59 60 60 57 55 53 51 50 47 43 41 39 38 39
69 69 70 70 69 70 68 68 68 66 63 63 62 61 56 53 53 50 45 44 45 47 51 52 50 51 55 59 60 64 69 67 61 58 61 66 69 70 74 71 61 58 65 72 75 71 63 61 64 65 63 62 60 56 55 54 52 50 46 42 41 41 41
65 66 66 66 66 68 67 68 72 73 72 71 69 67 64 59 56 55 51 49 50 55 63 65 61 58 58 59 60 64 68 64 58 53 51 56 64 66 69 73 66 58 62 71 76 73 64 59 65 69 70 69 64 58 55 51 48 50 51 50 46 44 44
59 62 64 64 64 65 65 67 71 73 75 75 72 71 70 65 61 60 58 55 56 64 73 73 65 57 55 56 55 58 66 67 63 59 56 58 66 67 67 69 64 62 67 69 65 65 67 70 71 69 71 74 70 63 58 51 45 44 48 51 49 47 52
57 60 62 64 64 64 63 65 68 71 73 73 73 75 76 73 67 64 64 65 68 73 76 72 63 55 55 57 55 55 64 72 72 66 64 69 71 68 67 62 54 57 69 70 63 63 71 77 73 67 68 71 69 64 59 53 48 43 41 45 47 51 59
51 55 59 62 64 64 64 66 69 71 72 73 74 76 77 75 72 70 71 73 75 75 74 72 65 58 57 59 60 58 62 74 80 73 67 72 73 68 67 61 52 57 67 66 60 63 71 75 71 65 64 63 62 62 59 56 55 53 50 52 53 57 61
41 44 48 54 59 61 64 66 68 71 72 72 73 76 76 76 79 80 77 76 74 71 72 74 71 64 62 63 63 63 65 73 81 78 71 72 70 64 63 60 56 61 65 59 54 57 66 71 68 64 63 62 64 66 64 58 54 51 49 49 49 51 53
38 39 40 43 47 51 56 59 63 68 71 71 72 75 76 77 80 80 79 78 77 76 77 80 77 72 72 72 69 69 70 72 76 76 70 67 66 62 60 59 59 60 58 55 53 54 59 64 62 60 62 64 64 64 59 50 42 39 39 40 42 45 46
39 41 41 40 41 45 48 51 53 57 62 65 69 72 73 74 75 76 77 77 77 78 82 86 83 78 79 80 77 76 72 69 71 70 63 63 65 60 55 57 60 57 50 49 51 51 54 59 59 57 60 61 60 62 60 51 43 42 44 46 48 50 50
40 43 44 43 44 46 46 47 49 51 54 56 60 65 68 70 71 71 73 74 75 77 82 85 84 81 81 81 79 77 72 65 66 64 58 59 62 59 56 58 58 52 47 46 47 48 51 57 56 53 56 56 52 55 63 64 60 59 61 61 60 60 60
38 43 46 46 46 46 46 46 47 49 51 51 53 57 62 65 69 70 70 73 78 80 83 87 86 80 79 80 78 74 69 64 64 64 60 59 60 58 57 56 52 49 47 47 47 46 48 55 58 56 57 56 53 55 63 66 64 61 60 61 63 63 62
36 41 45 46 46 46 47 46 45 47 50 49 49 53 56 61 66 69 69 71 76 79 82 87 87 79 76 80 78 71 67 65 62 60 60 61 59 55 53 51 49 50 50 49 49 48 48 53 61 64 63 61 60 61 62 62 61 59 56 55 57 56 53
36 38 40 41 44 47 48 47 46 45 46 47 49 52 56 60 62 64 65 66 70 74 77 84 87 79 76 82 80 72 71 71 62 58 62 59 51 48 50 51 50 51 51 51 51 51 50 52 55 58 57 56 56 56 53 52 54 54 51 48 46 45 43
37 36 36 37 40 43 44 46 46 45 45 48 49 50 55 60 61 59 61 65 69 70 74 84 87 77 76 85 82 72 75 76 67 62 59 50 43 48 52 52 52 53 53 53 53 52 51 52 51 50 49 48 45 42 42 46 48 46 45 45 43 43 43
38 36 35 36 37 37 39 43 45 43 43 45 46 45 49 56 59 56 56 61 66 65 69 82 87 79 79 82 74 69 75 77 70 62 50 41 45 54 53 50 54 56 54 53 52 51 50 48 45 42 40 36 33 35 40 46 47 45 46 46 44 43 43
Wind_Speed
4 4 5 4 4 5 4 3 3 3 3 3 3 2 2 2 1 1 1 1 1 2 2 3 2 3 3 2 2 3 4 4 3 4 4 4 4 4 5 5 4 5 8 9 6 3 3 4 5 5 7 8 8 9 8 8 9 9 9 9 9 10 11
5 4 4 4 4 4 3 2 2 3 3 3 3 3 3 2 2 1 0 0 1 2 1 2 2 3 4 3 3 2 2 2 1 1 2 3 2 3 4 5 7 8 7 8 9 7 4 3 5 5 6 7 8 8 8 8 8 9 9 9 9 10 10
4 3 4 4 4 3 3 2 2 2 3 3 3 3 3 2 2 1 1 1 1 2 2 2 3 4 5 5 4 4 4 3 3 2 2 3 3 3 4 5 7 8 9 9 8 5 4 4 5 6 7 7 7 7 7 7 8 9 9 9 9 10 10
3 3 3 3 3 3 3 2 1 1 2 3 3 3 2 2 2 2 2 3 3 4 4 4 3 4 5 6 5 5 5 4 4 4 3 4 4 4 3 2 2 3 4 6 8 8 7 5 6 6 8 8 9 8 6 6 7 8 9 9 9 9 9
3 2 3 3 3 3 3 3 2 2 2 3 3 3 2 2 2 3 3 4 5 5 5 4 4 4 4 6 7 6 6 6 6 6 5 4 4 4 3 4 4 5 4 4 6 6 4 7 7 6 8 9 8 9 8 7 8 8 8 9 9 9 9
5 3 3 4 3 3 3 3 3 3 3 4 4 3 2 2 2 3 3 4 5 6 6 6 6 6 5 5 7 7 6 7 7 6 6 6 5 5 4 3 4 5 4 4 3 2 4 7 6 5 8 8 7 8 8 7 8 8 8 8 8 8 9
8 6 5 6 4 3 3 3 3 3 4 4 5 4 3 3 3 3 3 4 5 6 7 7 8 8 7 7 8 8 8 8 8 9 8 7 7 6 4 4 5 6 6 5 3 3 5 6 5 5 7 7 5 7 8 8 7 7 8 8 8 8 8
9 8 7 7 6 5 5 4 3 4 5 5 5 4 3 3 4 4 4 4 5 6 7 8 8 8 8 9 9 9 9 9 9 10 9 8 8 7 6 6 7 7 6 5 3 3 4 5 4 5 6 5 4 4 5 6 7 7 6 7 7 7 6
11 9 7 9 9 7 7 6 5 5 6 6 6 5 4 4 4 4 5 5 5 6 7 7 8 8 8 9 9 8 9 9 9 9 9 9 9 8 8 7 7 8 7 6 5 5 4 4 5 5 5 5 4 4 4 4 5 6 4 5 7 6 6
11 9 9 10 10 9 8 7 6 6 7 7 6 6 5 5 4 5 6 6 6 7 7 7 8 8 8 8 8 8 8 8 9 9 9 9 9 9 8 8 8 9 8 8 8 7 6 6 6 5 3 4 2 2 4 3 3 5 4 4 5 6 5
11 11 11 12 11 10 9 9 8 8 7 7 7 7 7 6 5 5 6 7 8 8 8 8 9 9 9 9 9 8 8 8 9 9 9 9 9 9 8 9 9 9 9 9 9 8 7 6 5 3 1 1 3 5 2 6 4 4 4 4 5 5 4
12 12 12 13 13 11 11 11 10 9 8 8 8 8 8 7 6 6 7 7 8 9 8 8 9 9 9 9 9 9 9 8 9 9 9 9 9 9 9 9 10 10 9 9 9 8 7 6 5 4 3 4 5 7 5 5 4 3 4 3 4 4 3
12 12 13 14 14 12 12 12 11 10 10 10 10 9 8 8 7 7 7 8 8 9 9 9 9 9 10 10 10 10 9 9 10 10 9 9 9 9 9 9 9 8 7 7 8 7 6 6 5 5 5 5 5 6 5 4 4 5 4 3 2 2 2
12 12 13 14 14 13 12 12 11 11 10 10 11 11 9 8 8 8 8 8 8 9 9 9 9 10 10 10 10 10 10 10 10 10 9 9 9 8 8 8 8 7 5 6 6 4 5 5 4 4 4 3 4 3 2 3 5 5 3 1 0 1 1
12 12 13 13 13 13 11 11 12 12 11 10 11 11 10 9 9 9 9 8 9 9 9 9 9 9 10 11 11 10 10 10 10 10 9 9 8 7 7 7 7 5 4 4 2 2 5 4 3 4 2 1 3 1 1 1 2 4 4 1 1 2 1
11 12 12 13 12 11 10 11 12 12 11 10 9 10 10 10 9 9 9 9 9 9 9 9 9 9 10 11 11 10 9 10 10 9 9 9 8 7 7 6 6 5 4 3 1 2 3 1 3 3 3 1 2 2 2 2 2 1 3 3 3 4 4
12 12 12 13 12 10 9 10 11 12 11 10 9 9 9 10 10 9 9 9 9 9 9 9 9 10 11 11 10 10 10 10 10 9 8 8 8 8 7 6 6 5 4 4 2 1 3 1 3 1 3 2 1 2 1 2 3 2 2 2 2 3 2
13 12 12 13 12 10 9 9 10 11 10 10 10 9 9 10 11 10 10 10 10 10 10 10 10 10 10 10 10 10 10 9 9 8 7 7 7 7 7 6 6 6 5 4 3 3 3 2 2 2 3 4 4 4 3 3 3 2 4 4 2 3 5
13 12 12 12 12 10 8 9 10 10 10 10 10 10 10 11 11 11 11 11 11 11 11 11 11 11 10 10 10 10 9 9 8 7 7 7 6 6 6 5 5 5 5 5 4 4 3 3 3 3 3 5 5 2 3 3 4 3 5 6 5 4 5
11 12 12 12 11 10 10 11 11 10 10 11 11 12 12 11 11 12 12 12 12 12 13 13 12 12 12 11 10 10 9 9 8 7 7 6 6 6 5 5 4 5 5 5 6 6 6 5 6 6 6 6 7 5 3 5 6 6 7 7 6 6 7
9 10 11 11 11 11 11 12 12 11 10 11 12 13 13 13 13 12 13 13 13 13 14 13 13 13 13 12 12 11 10 9 8 7 7 6 5 5 4 3 3 4 5 7 7 7 6 6 7 7 7 7 8 7 6 6 6 7 8 8 8 8 8
8 8 9 10 11 12 11 11 11 11 10 11 12 13 13 14 14 14 14 14 14 14 14 14 14 15 14 13 13 12 10 9 7 6 5 4 4 4 4 3 3 5 6 8 9 9 9 8 8 8 8 7 8 8 7 7 7 8 9 10 10 9 8
7 8 8 9 10 11 11 10 11 11 10 11 11 12 13 14 15 16 15 15 15 15 15 15 16 16 16 14 13 12 11 9 7 6 3 1 1 3 3 3 5 7 8 9 11 13 13 12 12 12 12 10 9 9 8 8 9 10 10 11 11 10 9
6 7 7 8 8 9 10 10 10 11 11 11 11 12 14 15 16 16 17 17 17 17 15 16 18 19 18 16 13 11 11 10 10 8 5 7 7 5 5 7 7 7 7 8 9 10 10 9 10 12 13 14 14 12 11 9 9 9 10 11 11 10 9
5 5 5 7 7 7 8 9 10 11 11 12 12 13 15 16 16 16 17 18 18 18 16 19 22 22 21 19 14 10 9 9 9 11 13 15 13 9 9 9 7 8 8 8 8 8 9 9 8 9 11 13 15 16 16 14 9 5 4 6 7 8 8
2 2 3 4 4 5 6 7 9 11 12 13 14 15 16 16 16 16 17 17 18 18 17 21 26 26 23 20 16 12 10 9 10 9 10 13 12 11 11 9 9 10 9 10 9 8 8 8 7 7 9 11 15 18 19 18 15 10 5 3 4 5 5
1 1 1 2 3 4 5 7 8 10 11 13 14 15 16 16 16 16 16 16 16 16 16 19 25 25 23 20 19 16 12 11 12 11 11 12 12 12 11 9 9 9 8 7 7 6 7 7 6 6 7 9 12 14 15 14 13 12 10 6 4 4 2
2 2 3 4 5 6 6 7 8 9 10 11 13 15 17 18 18 17 18 17 18 18 17 18 22 24 23 22 22 20 16 14 14 14 13 13 13 12 9 8 8 8 7 7 7 8 7 5 4 5 6 7 6 6 9 9 7 7 6 4 3 2 1
4 3 4 4 6 7 7 8 9 9 10 11 12 14 17 20 21 20 21 21 21 21 20 20 24 27 26 25 25 23 19 15 14 14 13 12 12 10 8 7 7 7 7 6 6 8 10 7 5 6 8 9 7 7 9 10 9 9 7 6 6 5 6
5 5 5 5 6 6 6 7 8 9 11 12 12 13 15 18 19 20 21 23 22 21 21 22 25 26 23 23 25 26 21 17 16 15 15 13 12 11 10 9 8 8 7 6 6 8 11 10 7 7 9 8 7 6 7 9 8 8 8 7 7 8 8
7 7 7 7 7 7 7 8 9 10 11 12 13 14 14 15 16 17 19 21 21 21 22 22 23 22 21 21 24 24 22 19 16 15 16 14 11 12 13 12 10 9 8 8 7 9 12 10 7 7 8 8 7 6 5 6 6 6 6 6 7 8 9
8 8 8 9 9 9 9 9 10 10 11 12 13 14 15 15 16 17 17 17 19 19 19 19 20 20 19 21 23 24 22 19 17 16 15 14 11 12 14 14 13 10 9 9 9 11 13 10 6 7 7 7 7 7 7 6 4 2 3 5 6 8 9
9 9 10 10 10 10 10 11 11 12 12 13 14 14 14 15 16 17 17 16 17 18 17 17 18 18 18 21 23 23 21 19 19 16 14 13 12 12 14 14 13 11 10 11 10 11 12 9 6 5 6 4 4 5 7 7 5 3 3 5 6 7 8
11 11 12 12 12 12 12 12 13 13 14 15 15 15 15 15 15 16 17 16 17 17 18 19 19 17 18 21 24 23 19 19 20 17 16 17 16 14 13 13 14 13 12 12 11 10 11 10 8 7 5 3 5 7 6 3 4 5 6 6 8 8 8
13 14 14 13 14 14 14 14 15 15 16 16 17 17 16 16 15 15 16 16 16 17 18 21 22 20 20 23 26 24 19 18 20 20 21 21 18 15 14 14 16 15 13 12 11 10 10 10 9 7 6 4 5 5 3 2 4 5 6 6 7 8 8
15 15 15 15 15 16 16 16 16 17 17 17 18 19 18 18 17 16 15 14 14 15 17 20 23 23 21 23 25 24 18 16 18 22 22 20 16 15 15 16 17 16 13 11 10 9 8 8 7 5 4 4 4 4 3 3 4 5 5 6 7 8 9
16 16 16 17 17 18 18 18 18 18 18 18 19 20 20 19 18 18 18 15 15 16 16 17 19 21 21 22 26 25 19 17 21 21 19 16 16 16 16 17 17 15 13 11 9 8 6 5 4 3 3 2 1 0 1 2 4 5 5 6 7 7 7
Wind_Direction
95 101 112 114 103 102 111 112 110 114 108 99 101 103 103 94 74 63 46 319 259 237 216 208 200 194 215 237 185 172 203 202 187 207 196 178 176 174 174 169 154 144 147 148 145 166 188 140 124 104 82 77 71 67 65 67 70 67 62 65 70 72 73
95 118 125 115 105 108 115 106 110 118 109 108 117 118 114 104 98 84 15 338 301 290 241 179 163 156 166 175 159 152 161 154 148 169 160 161 175 164 160 172 169 150 152 172 166 169 205 159 131 120 110 101 86 78 76 76 76 73 67 62 65 71 73
96 113 115 113 118 118 119 113 113 124 126 126 126 134 139 118 103 92 88 96 62 20 51 94 127 136 143 148 140 130 122 124 129 115 130 144 150 162 165 174 173 159 170 181 161 165 213 169 130 135 138 125 104 92 91 94 93 85 77 69 64 64 66
94 99 112 123 136 133 135 141 149 144 135 131 131 143 144 118 94 84 98 104 91 77 77 94 120 130 135 136 130 127 123 120 120 115 106 111 132 156 163 141 106 112 139 144 148 185 204 145 125 143 138 125 119 112 101 94 91 86 80 75 71 67 65
117 111 128 147 156 154 153 154 160 152 143 143 143 144 135 124 112 107 113 110 96 90 93 99 101 107 122 129 128 126 124 118 116 123 123 114 125 129 93 69 76 90 94 115 149 186 170 127 137 151 134 129 124 116 113 105 91 81 71 67 67 64 66
154 161 159 160 163 158 148 152 163 163 160 155 150 146 137 139 134 125 124 111 100 94 93 93 90 92 99 109 115 115 117 114 107 110 111 101 97 99 100 97 97 102 95 94 118 109 105 131 154 148 128 128 126 124 131 129 107 89 70 61 59 55 56
160 168 170 160 156 148 137 151 165 160 160 154 145 144 145 148 142 132 124 110 105 101 97 96 90 89 91 90 91 94 96 93 87 89 94 94 92 93 95 84 78 78 77 83 101 105 121 142 151 138 123 120 135 144 144 133 111 91 75 61 55 57 56
165 169 163 150 146 144 136 144 157 152 154 149 140 138 137 140 134 127 124 115 110 107 104 105 99 92 93 91 87 88 89 89 90 94 95 93 89 86 82 81 85 84 82 91 98 98 128 141 134 128 122 127 149 140 125 114 98 85 85 77 61 60 65
164 165 156 144 141 140 138 141 150 152 149 143 137 136 135 137 137 132 127 121 116 114 112 110 104 99 97 97 96 94 94 94 97 98 98 96 92 89 87 87 93 85 76 80 77 69 80 104 119 125 129 146 149 122 114 104 94 88 82 86 81 70 67
165 164 153 145 142 143 142 138 140 146 146 142 139 138 136 136 136 132 127 126 123 119 117 111 107 107 105 103 103 99 96 95 95 96 98 99 96 94 92 90 94 89 78 77 76 73 70 83 115 130 146 170 169 148 159 142 104 102 73 55 76 82 78
165 159 151 150 150 150 147 142 141 143 149 151 147 142 139 137 138 137 131 130 128 124 121 116 114 115 112 109 107 102 101 100 99 97 98 99 97 96 94 90 89 85 79 79 79 83 81 81 106 109 40 123 338 332 136 129 104 97 87 57 57 67 79
163 157 155 155 155 153 152 153 154 154 157 161 156 149 144 144 150 148 140 137 135 130 127 124 122 121 119 117 114 111 110 111 109 107 105 105 103 100 95 91 91 88 86 88 85 84 86 81 94 94 65 67 26 7 49 108 111 86 79 77 67 57 64
164 161 161 159 155 154 157 161 165 164 165 171 166 156 150 155 161 160 153 149 143 138 135 133 131 128 126 125 124 122 122 122 119 117 116 115 113 111 106 99 96 93 90 93 90 86 86 73 71 82 76 71 57 38 45 82 111 96 78 75 93 82 67
166 167 166 159 152 154 160 167 173 173 177 180 171 159 157 165 170 170 167 159 150 145 141 138 138 136 133 130 128 128 129 129 125 120 120 121 119 116 112 106 102 95 86 97 106 107 105 99 86 89 92 93 87 58 40 87 113 112 95 55 184 147 82
167 171 171 164 156 159 165 174 179 179 181 182 174 167 165 169 175 176 172 165 157 151 146 145 144 141 137 132 130 133 133 132 127 124 127 126 123 120 115 114 111 101 91 101 120 112 115 145 173 131 119 92 94 87 3 66 153 147 136 147 247 230 217
174 175 177 173 166 167 175 180 181 178 177 176 176 175 170 171 177 179 175 169 163 159 153 151 149 145 142 138 136 137 135 133 131 133 137 136 133 131 126 124 121 114 113 120 60 49 100 237 278 105 102 56 76 87 36 348 303 181 154 168 213 233 199
180 179 184 183 178 180 182 180 180 177 174 175 177 178 176 177 181 181 180 175 169 165 161 158 157 153 149 147 145 142 140 141 142 145 149 147 144 144 143 144 141 137 139 140 141 109 130 235 305 84 136 183 176 136 84 320 301 321 291 225 202 253 234
184 185 189 191 190 191 188 185 186 181 179 179 180 181 182 185 187 186 186 183 176 173 170 168 165 160 156 155 153 151 149 149 150 152 154 152 152 154 158 163 161 160 165 163 169 175 165 196 267 241 208 225 219 178 171 263 282 303 298 288 263 280 309
187 190 192 194 195 200 202 200 196 189 187 188 188 189 189 192 194 192 192 191 187 182 178 177 175 168 164 161 158 157 156 156 158 161 163 165 168 170 174 182 185 184 191 198 205 211 206 214 254 264 249 265 272 220 178 245 275 268 273 287 286 273 282
184 187 192 197 201 207 210 208 205 201 198 197 196 196 196 198 199 199 198 197 194 191 186 185 181 176 173 170 165 163 159 160 165 165 170 179 183 186 193 201 212 220 227 233 230 235 239 232 239 255 257 267 280 274 237 249 272 275 267 274 281 275 276
186 192 198 204 209 212 211 209 208 208 207 205 204 205 204 203 203 204 204 201 198 195 192 191 187 182 181 175 170 168 166 169 172 172 179 188 188 196 209 217 238 250 254 255 246 242 249 242 234 245 252 254 260 262 257 260 274 281 275 274 277 273 280
188 198 204 209 212 211 210 208 207 207 208 210 211 212 212 208 205 207 207 204 201 197 195 195 191 187 185 178 175 172 167 163 161 161 173 187 200 221 226 213 241 264 263 259 251 242 244 245 241 244 250 255 259 253 245 250 261 267 268 270 273 272 272
190 197 203 208 209 207 208 208 211 215 216 218 219 219 221 217 211 210 209 205 202 197 196 197 193 189 184 180 180 178 169 163 163 158 136 63 263 255 260 259 257 254 252 259 262 257 250 249 246 243 243 247 252 243 233 242 254 257 260 267 275 281 284
189 195 199 205 208 209 211 212 218 224 225 230 231 227 227 223 216 215 214 209 203 198 196 197 192 187 181 174 174 176 175 182 195 207 243 286 292 280 275 278 265 247 249 262 270 268 261 256 250 242 239 239 238 229 224 236 251 257 262 270 276 282 288
177 185 192 202 206 210 218 220 225 229 229 231 234 232 230 226 221 220 217 213 207 200 198 199 194 188 185 181 179 186 193 208 231 249 260 267 272 271 261 248 222 220 238 239 239 253 262 260 255 246 239 235 232 227 224 230 239 255 283 285 281 287 301
154 171 190 207 209 213 224 229 231 234 234 233 232 231 229 227 225 222 217 217 211 200 200 203 198 194 194 195 200 208 211 222 234 240 244 247 252 256 252 232 204 206 221 222 221 231 240 243 247 248 242 233 231 230 228 231 234 236 251 295 303 300 322
359 293 246 238 233 231 236 240 241 241 239 235 229 225 224 226 229 224 216 215 210 202 204 208 203 200 203 210 219 222 216 215 211 199 201 220 234 242 242 233 220 209 197 199 204 195 207 232 247 245 231 223 228 232 231 234 239 239 245 261 285 299 328
356 312 273 252 244 241 238 241 243 241 240 235 226 223 223 227 234 229 216 212 213 214 217 216 214 218 225 228 229 227 223 219 208 198 201 214 224 227 223 220 217 196 175 185 194 181 184 208 220 198 182 179 186 195 198 201 199 199 208 213 217 232 249
358 326 293 269 254 248 242 241 241 236 236 235 229 227 227 229 234 231 221 218 220 222 224 225 229 238 244 242 236 232 229 220 206 196 194 200 204 198 193 203 197 172 169 190 193 179 176 171 165 163 158 152 150 164 186 194 192 192 199 211 225 240 256
350 334 314 291 273 264 259 253 249 241 237 237 234 231 230 231 233 229 225 225 227 229 233 234 234 237 240 238 235 231 224 214 204 191 180 183 187 178 176 186 178 159 167 178 171 172 171 164 162 165 160 155 153 164 195 207 207 213 227 241 253 263 272
338 332 319 307 298 292 281 270 263 252 245 244 243 241 239 238 235 231 229 230 231 235 236 234 231 228 225 228 229 223 214 207 199 183 171 172 178 185 188 180 160 153 165 165 158 164 163 158 167 176 167 167 168 160 175 201 216 236 256 270 279 287 293
323 321 315 312 311 304 292 282 275 266 258 254 250 247 245 242 240 237 235 234 235 236 233 230 229 223 218 221 220 214 207 199 184 171 166 163 164 182 191 180 165 165 167 158 155 160 160 159 176 186 178 190 206 193 168 168 186 243 286 294 300 305 308
309 307 304 304 304 300 294 289 281 273 268 262 256 252 247 243 240 238 236 233 232 230 226 225 222 214 212 215 210 204 197 182 167 159 155 155 159 170 177 175 173 172 166 163 164 165 167 166 157 164 181 207 208 166 144 157 191 229 271 278 277 282 285
300 298 296 294 292 289 286 284 281 276 270 265 262 257 251 246 242 238 237 233 228 225 224 223 216 208 208 205 197 194 188 171 165 166 167 173 178 171 163 167 171 168 165 168 170 169 174 175 163 159 173 177 156 144 136 169 235 258 273 266 261 268 272
290 288 287 285 283 282 279 277 275 272 268 265 262 258 254 249 243 239 236 230 227 224 221 221 218 210 203 197 191 190 183 169 170 174 175 182 184 166 155 165 168 167 168 170 172 174 179 185 188 192 199 203 200 204 216 246 258 266 272 269 272 281 285
285 281 278 276 274 274 274 273 270 267 263 261 258 255 252 248 244 243 237 226 225 222 212 213 219 215 204 196 190 188 186 181 180 179 180 184 176 154 156 169 168 167 171 171 173 176 175 183 197 203 208 219 235 251 264 261 259 267 277 283 289 289 287
288 282 278 275 271 269 267 266 266 265 261 257 254 251 249 244 241 242 237 225 222 219 207 206 215 214 206 192 182 185 197 198 190 188 187 179 159 149 161 173 169 167 171 170 168 168 166 173 184 181 193 221 242 274 259 257 263 273 280 281 283 286 288